Weather History for Wilmington, NC

Change the Weather History Date:

Tuesday, July 16, 2013

  Actual Average Record
Temperature  
Mean Temperature 82 °F 81 °F  
Max Temperature 92 °F 90 °F 98 °F (1983)
Min Temperature 71 °F 73 °F 63 °F (1926)
Degree Days  
Heating Degree Days 0 0  
Month to date heating degree days 0 0  
Since 1 June heating degree days 0 2  
Since 1 July heating degree days 0 0  
Cooling Degree Days 17 16  
Month to date cooling degree days 236 256  
Year to date cooling degree days 842 922  
Since 1 June cooling degree days 616 641  
Growing Degree Days 31 (Base 50)    
Moisture  
Dew Point 71 °F    
Average Humidity 76    
Maximum Humidity 100    
Minimum Humidity 52    
Precipitation  
Precipitation 0.00 in 0.26 in 3.46 in (1935)
Month to date precipitation 4.12 3.59  
Year to date precipitation 32.29 27.67  
Sea Level Pressure  
Sea Level Pressure 30.24 in    
Wind  
Wind Speed 3 mph (South)    
Max Wind Speed 10 mph    
Max Gust Speed 17 mph    
Visibility 10 miles    
Events      
T = Trace of Precipitation, MM = Missing Value Source: NWS Daily Summary

Daily Weather History Graph

Daily Weather History Graph

Search for Another Location

Airport:

Trip Planner

Search our weather history database for the weather conditions in past years. The results will help you decide how hot, cold, wet, or windy it might be!

Date:

Astronomy

Jul. 16, 2013 Rise Set
Actual Time 6:11 AM EDT 8:23 PM EDT
Civil Twilight 5:43 AM EDT 8:52 PM EDT
Nautical Twilight 5:08 AM EDT 9:26 PM EDT
Astronomical Twilight 4:30 AM EDT 10:04 PM EDT
Moon 2:09 PM EDT (7/16) 12:32 AM EDT (7/16)
Length of Visible Light 15h 09m
Length of Day
14h 11m
First Quarter, 56% of the Moon is Illuminated
Jul 16
First Quarter
Jul 22
Full
Jul 29
Last Quarter
Aug 6
New
Aug 14
First Quarter

Hourly Weather History & Observations

Time (EDT) Temp. Heat Index Dew Point Humidity Pressure Visibility Wind Dir Wind Speed Gust Speed Precip Events Conditions
12:53 AM 73.0 °F - 71.1 °F 93% 30.26 in 10.0 mi Calm Calm - N/A   Clear
1:53 AM 73.0 °F - 71.1 °F 93% 30.25 in 10.0 mi Calm Calm - N/A   Clear
2:53 AM 73.0 °F - 71.1 °F 93% 30.25 in 10.0 mi Calm Calm - 0.01 in   Clear
3:53 AM 73.0 °F - 71.1 °F 93% 30.25 in 10.0 mi Calm Calm - N/A   Clear
4:53 AM 71.1 °F - 70.0 °F 96% 30.25 in 10.0 mi Calm Calm - 0.01 in   Clear
5:53 AM 71.1 °F - 70.0 °F 96% 30.26 in 8.0 mi Calm Calm - N/A   Clear
6:53 AM 72.0 °F - 71.1 °F 97% 30.27 in 10.0 mi Calm Calm - N/A   Clear
7:53 AM 75.9 °F - 73.0 °F 91% 30.28 in 10.0 mi Calm Calm - N/A   Clear
8:53 AM 80.1 °F 84.2 °F 73.0 °F 79% 30.29 in 10.0 mi Calm Calm - N/A   Clear
9:53 AM 82.9 °F 88.0 °F 72.0 °F 69% 30.27 in 10.0 mi NNW 3.5 mph - 0.01 in   Clear
10:53 AM 84.9 °F 90.1 °F 71.1 °F 63% 30.27 in 10.0 mi Calm Calm - N/A   Clear
11:53 AM 88.0 °F 92.9 °F 70.0 °F 55% 30.26 in 10.0 mi Variable 4.6 mph - N/A   Clear
12:53 PM 88.0 °F 92.9 °F 70.0 °F 55% 30.25 in 10.0 mi East 4.6 mph - N/A   Clear
1:53 PM 89.1 °F 94.1 °F 70.0 °F 53% 30.23 in 10.0 mi Variable 3.5 mph - N/A   Scattered Clouds
2:53 PM 90.0 °F 94.5 °F 69.1 °F 50% 30.22 in 10.0 mi Calm Calm - N/A   Mostly Cloudy
3:53 PM 90.0 °F 96.9 °F 72.0 °F 55% 30.20 in 10.0 mi SSE 8.1 mph - N/A   Mostly Cloudy
4:53 PM 89.1 °F 96.0 °F 72.0 °F 57% 30.20 in 10.0 mi SSE 6.9 mph - N/A   Partly Cloudy
5:53 PM 87.1 °F 92.8 °F 71.1 °F 59% 30.19 in 10.0 mi SSE 5.8 mph - N/A   Clear
6:53 PM 86.0 °F 90.7 °F 70.0 °F 59% 30.18 in 10.0 mi South 4.6 mph - N/A   Clear
7:53 PM 82.9 °F 88.0 °F 72.0 °F 69% 30.19 in 10.0 mi South 5.8 mph - N/A   Clear
8:53 PM 81.0 °F 85.2 °F 72.0 °F 74% 30.20 in 10.0 mi SSW 5.8 mph - N/A   Clear
9:53 PM 80.1 °F 84.2 °F 73.0 °F 79% 30.22 in 10.0 mi SW 5.8 mph - N/A   Clear
10:53 PM 79.0 °F - 73.0 °F 82% 30.22 in 10.0 mi SW 4.6 mph - N/A   Clear
11:53 PM 79.0 °F - 73.0 °F 82% 30.21 in 10.0 mi SW 3.5 mph - N/A   Clear